Time,TemperatureF,DewpointF,PressureIn,WindDirection,WindDirectionDegrees,WindSpeedMPH,WindSpeedGustMPH,Humidity,HourlyPrecipIn,Conditions,Clouds,dailyrainin,SoftwareType,DateUTC
2013-05-27 00:01:00,39.2,39.0,29.80,NNW,337,0.0,0.0,100,0.00,,,0.00,Rainwise IP-100,2013-05-27 04:01:00,
2013-05-27 00:06:00,38.9,39.0,29.80,NNW,337,0.0,0.0,100,0.00,,,0.00,Rainwise IP-100,2013-05-27 04:06:00,
2013-05-27 00:11:00,38.9,39.0,29.80,NNW,337,0.0,0.0,100,0.00,,,0.00,Rainwise IP-100,2013-05-27 04:11:00,
2013-05-27 00:16:00,38.8,39.0,29.80,NNW,337,0.0,1.0,100,0.00,,,0.00,Rainwise IP-100,2013-05-27 04:16:00,
2013-05-27 00:21:00,38.8,39.0,29.80,NNW,337,0.0,0.0,100,0.00,,,0.00,Rainwise IP-100,2013-05-27 04:21:00,
2013-05-27 00:26:00,39.2,39.0,29.80,NNW,337,0.0,0.0,100,0.00,,,0.00,Rainwise IP-100,2013-05-27 04:26:00,
2013-05-27 00:31:00,39.2,39.0,29.80,NNW,337,0.0,0.0,100,0.00,,,0.00,Rainwise IP-100,2013-05-27 04:31:00,
2013-05-27 00:37:00,39.2,39.0,29.79,NNW,337,0.0,2.0,100,0.00,,,0.00,Rainwise IP-100,2013-05-27 04:37:00,
2013-05-27 00:42:00,39.6,40.0,29.80,NNW,337,0.0,1.0,100,0.00,,,0.00,Rainwise IP-100,2013-05-27 04:42:00,
2013-05-27 00:47:00,39.6,40.0,29.80,NNW,337,0.0,0.0,100,0.00,,,0.00,Rainwise IP-100,2013-05-27 04:47:00,
2013-05-27 00:52:00,39.4,39.0,29.80,West,270,0.0,4.0,100,0.00,,,0.00,Rainwise IP-100,2013-05-27 04:52:00,
2013-05-27 00:57:00,39.9,40.0,29.80,South,180,0.0,4.0,100,0.00,,,0.00,Rainwise IP-100,2013-05-27 04:57:00,
2013-05-27 01:02:00,40.2,40.0,29.80,South,180,0.0,2.0,100,0.00,,,0.00,Rainwise IP-100,2013-05-27 05:02:00,
2013-05-27 01:07:00,40.3,40.0,29.80,South,180,1.0,2.0,100,0.00,,,0.00,Rainwise IP-100,2013-05-27 05:07:00,
2013-05-27 01:13:00,40.5,41.0,29.80,South,180,3.0,3.0,100,0.00,,,0.00,Rainwise IP-100,2013-05-27 05:13:00,
2013-05-27 01:18:00,40.6,41.0,29.80,South,180,0.0,4.0,100,0.00,,,0.00,Rainwise IP-100,2013-05-27 05:18:00,
2013-05-27 01:23:00,40.7,41.0,29.79,South,180,0.0,4.0,100,0.00,,,0.00,Rainwise IP-100,2013-05-27 05:23:00,
2013-05-27 01:28:00,40.7,41.0,29.79,South,180,2.0,3.0,100,0.00,,,0.00,Rainwise IP-100,2013-05-27 05:28:00,
2013-05-27 01:33:00,40.8,41.0,29.79,South,180,0.0,4.0,100,0.00,,,0.00,Rainwise IP-100,2013-05-27 05:33:00,
2013-05-27 01:38:00,40.6,41.0,29.80,South,180,0.0,3.0,100,0.00,,,0.00,Rainwise IP-100,2013-05-27 05:38:00,
2013-05-27 01:43:00,40.8,41.0,29.79,South,180,0.0,4.0,100,0.00,,,0.00,Rainwise IP-100,2013-05-27 05:43:00,
2013-05-27 01:48:00,40.8,41.0,29.79,South,180,0.0,2.0,100,0.00,,,0.00,Rainwise IP-100,2013-05-27 05:48:00,
2013-05-27 01:54:00,41.0,41.0,29.79,South,180,1.0,4.0,100,0.00,,,0.00,Rainwise IP-100,2013-05-27 05:54:00,
2013-05-27 01:59:00,41.1,41.0,29.79,SE,135,0.0,5.0,100,0.00,,,0.00,Rainwise IP-100,2013-05-27 05:59:00,
2013-05-27 02:04:00,41.2,41.0,29.79,SE,135,0.0,5.0,100,0.00,,,0.00,Rainwise IP-100,2013-05-27 06:04:00,
2013-05-27 02:09:00,41.2,41.0,29.79,SSE,157,1.0,4.0,100,0.00,,,0.00,Rainwise IP-100,2013-05-27 06:09:00,
2013-05-27 02:14:00,41.2,41.0,29.80,SSE,157,1.0,4.0,100,0.00,,,0.00,Rainwise IP-100,2013-05-27 06:14:00,
2013-05-27 02:19:00,41.3,41.0,29.79,SSE,157,1.0,5.0,100,0.00,,,0.00,Rainwise IP-100,2013-05-27 06:19:00,
2013-05-27 02:24:00,41.4,41.0,29.79,SSE,157,3.0,5.0,100,0.00,,,0.00,Rainwise IP-100,2013-05-27 06:24:00,
2013-05-27 02:30:00,41.3,41.0,29.79,East,90,0.0,6.0,100,0.00,,,0.00,Rainwise IP-100,2013-05-27 06:30:00,
2013-05-27 02:35:00,41.2,41.0,29.79,SSE,157,3.0,5.0,100,0.00,,,0.00,Rainwise IP-100,2013-05-27 06:35:00,
2013-05-27 02:40:00,41.2,41.0,29.79,SSE,157,3.0,4.0,100,0.00,,,0.00,Rainwise IP-100,2013-05-27 06:40:00,
2013-05-27 02:45:00,41.2,41.0,29.79,SSE,157,1.0,5.0,100,0.00,,,0.00,Rainwise IP-100,2013-05-27 06:45:00,
2013-05-27 02:50:00,41.2,41.0,29.79,SSE,157,1.0,3.0,100,0.00,,,0.00,Rainwise IP-100,2013-05-27 06:50:00,
2013-05-27 02:55:00,41.2,41.0,29.79,SSE,157,3.0,4.0,100,0.00,,,0.00,Rainwise IP-100,2013-05-27 06:55:00,
2013-05-27 03:00:00,41.2,41.0,29.79,SSE,157,1.0,4.0,100,0.00,,,0.00,Rainwise IP-100,2013-05-27 07:00:00,
2013-05-27 03:03:00,41.4,41.0,29.80,South,180,4.0,5.0,100,0.00,,,0.00,Rainwise IP-100,2013-05-27 07:03:00,
2013-05-27 03:08:00,41.4,41.0,29.80,SSE,157,2.0,6.0,100,0.00,,,0.00,Rainwise IP-100,2013-05-27 07:08:00,
2013-05-27 03:13:00,41.4,41.0,29.80,SE,135,2.0,5.0,100,0.00,,,0.00,Rainwise IP-100,2013-05-27 07:13:00,
2013-05-27 03:18:00,41.3,41.0,29.80,SE,135,2.0,4.0,100,0.00,,,0.00,Rainwise IP-100,2013-05-27 07:18:00,
2013-05-27 03:23:00,41.2,41.0,29.80,SE,135,1.0,4.0,100,0.00,,,0.00,Rainwise IP-100,2013-05-27 07:23:00,
2013-05-27 03:28:00,41.2,41.0,29.80,SE,135,2.0,4.0,100,0.00,,,0.00,Rainwise IP-100,2013-05-27 07:28:00,
2013-05-27 03:33:00,40.8,41.0,29.80,SE,135,2.0,4.0,100,0.00,,,0.00,Rainwise IP-100,2013-05-27 07:33:00,
2013-05-27 03:38:00,40.4,40.0,29.80,SE,135,1.0,3.0,100,0.00,,,0.00,Rainwise IP-100,2013-05-27 07:38:00,
2013-05-27 03:44:00,40.2,40.0,29.80,SE,135,4.0,5.0,100,0.00,,,0.00,Rainwise IP-100,2013-05-27 07:44:00,
2013-05-27 03:49:00,39.9,40.0,29.80,SE,135,1.0,4.0,100,0.00,,,0.00,Rainwise IP-100,2013-05-27 07:49:00,
2013-05-27 03:54:00,39.8,40.0,29.80,SE,135,3.0,3.0,100,0.00,,,0.00,Rainwise IP-100,2013-05-27 07:54:00,
2013-05-27 03:59:00,39.6,40.0,29.80,SE,135,0.0,4.0,100,0.00,,,0.00,Rainwise IP-100,2013-05-27 07:59:00,
2013-05-27 04:04:00,39.4,39.0,29.80,SE,135,0.0,3.0,100,0.00,,,0.00,Rainwise IP-100,2013-05-27 08:04:00,
2013-05-27 04:09:00,39.4,39.0,29.80,SE,135,1.0,3.0,100,0.00,,,0.00,Rainwise IP-100,2013-05-27 08:09:00,
2013-05-27 04:14:00,39.1,39.0,29.80,SE,135,2.0,3.0,100,0.00,,,0.00,Rainwise IP-100,2013-05-27 08:14:00,
2013-05-27 04:20:00,39.1,39.0,29.80,SE,135,3.0,4.0,100,0.00,,,0.00,Rainwise IP-100,2013-05-27 08:20:00,
2013-05-27 04:25:00,38.9,39.0,29.80,SE,135,1.0,3.0,100,0.00,,,0.00,Rainwise IP-100,2013-05-27 08:25:00,
2013-05-27 04:30:00,38.9,39.0,29.80,SE,135,2.0,4.0,100,0.00,,,0.00,Rainwise IP-100,2013-05-27 08:30:00,
2013-05-27 04:35:00,38.7,39.0,29.81,SE,135,2.0,3.0,100,0.00,,,0.00,Rainwise IP-100,2013-05-27 08:35:00,
2013-05-27 04:40:00,38.5,39.0,29.81,SE,135,1.0,4.0,100,0.00,,,0.00,Rainwise IP-100,2013-05-27 08:40:00,
2013-05-27 04:45:00,38.2,38.0,29.81,SE,135,2.0,2.0,100,0.00,,,0.00,Rainwise IP-100,2013-05-27 08:45:00,
2013-05-27 04:50:00,38.1,38.0,29.81,SE,135,1.0,2.0,100,0.00,,,0.00,Rainwise IP-100,2013-05-27 08:50:00,
2013-05-27 04:55:00,37.9,38.0,29.81,SE,135,0.0,2.0,100,0.00,,,0.00,Rainwise IP-100,2013-05-27 08:55:00,
2013-05-27 05:01:00,37.6,38.0,29.81,SE,135,0.0,0.0,100,0.00,,,0.00,Rainwise IP-100,2013-05-27 09:01:00,
2013-05-27 05:06:00,37.3,37.0,29.82,SE,135,0.0,0.0,100,0.00,,,0.00,Rainwise IP-100,2013-05-27 09:06:00,
2013-05-27 05:11:00,37.0,37.0,29.82,SE,135,0.0,0.0,100,0.00,,,0.00,Rainwise IP-100,2013-05-27 09:11:00,
2013-05-27 05:16:00,36.8,37.0,29.82,SE,135,0.0,0.0,100,0.00,,,0.00,Rainwise IP-100,2013-05-27 09:16:00,
2013-05-27 05:21:00,36.8,37.0,29.82,SE,135,0.0,2.0,100,0.00,,,0.00,Rainwise IP-100,2013-05-27 09:21:00,
2013-05-27 05:26:00,37.4,37.0,29.82,SE,135,0.0,2.0,100,0.00,,,0.00,Rainwise IP-100,2013-05-27 09:26:00,
2013-05-27 05:31:00,37.6,38.0,29.82,SE,135,1.0,2.0,100,0.00,,,0.00,Rainwise IP-100,2013-05-27 09:31:00,
2013-05-27 05:37:00,37.7,38.0,29.82,SE,135,3.0,3.0,100,0.00,,,0.00,Rainwise IP-100,2013-05-27 09:37:00,
2013-05-27 05:42:00,37.5,38.0,29.83,SE,135,0.0,3.0,100,0.00,,,0.00,Rainwise IP-100,2013-05-27 09:42:00,
2013-05-27 05:47:00,37.5,38.0,29.83,SE,135,0.0,0.0,100,0.00,,,0.00,Rainwise IP-100,2013-05-27 09:47:00,
2013-05-27 05:52:00,37.7,38.0,29.84,SE,135,2.0,3.0,100,0.00,,,0.00,Rainwise IP-100,2013-05-27 09:52:00,
2013-05-27 05:57:00,37.8,38.0,29.84,SE,135,0.0,4.0,100,0.00,,,0.00,Rainwise IP-100,2013-05-27 09:57:00,
2013-05-27 06:02:00,37.9,38.0,29.84,SSE,157,2.0,4.0,100,0.00,,,0.00,Rainwise IP-100,2013-05-27 10:02:00,
2013-05-27 06:07:00,37.9,38.0,29.84,SSE,157,0.0,3.0,100,0.00,,,0.00,Rainwise IP-100,2013-05-27 10:07:00,
2013-05-27 06:12:00,38.4,38.0,29.84,SE,135,3.0,3.0,100,0.00,,,0.00,Rainwise IP-100,2013-05-27 10:12:00,
2013-05-27 06:18:00,38.6,39.0,29.84,ESE,112,0.0,4.0,100,0.00,,,0.00,Rainwise IP-100,2013-05-27 10:18:00,
2013-05-27 06:23:00,38.8,39.0,29.84,SE,135,3.0,4.0,100,0.00,,,0.00,Rainwise IP-100,2013-05-27 10:23:00,
2013-05-27 06:28:00,38.9,39.0,29.84,SE,135,1.0,3.0,100,0.00,,,0.00,Rainwise IP-100,2013-05-27 10:28:00,
2013-05-27 06:33:00,39.1,39.0,29.85,SE,135,3.0,4.0,100,0.00,,,0.00,Rainwise IP-100,2013-05-27 10:33:00,
2013-05-27 06:38:00,39.3,39.0,29.85,SE,135,3.0,4.0,100,0.00,,,0.00,Rainwise IP-100,2013-05-27 10:38:00,
2013-05-27 06:43:00,39.6,40.0,29.85,ESE,112,2.0,5.0,100,0.00,,,0.00,Rainwise IP-100,2013-05-27 10:43:00,
2013-05-27 06:48:00,39.6,40.0,29.86,ESE,112,2.0,4.0,100,0.00,,,0.00,Rainwise IP-100,2013-05-27 10:48:00,
2013-05-27 06:54:00,39.8,40.0,29.86,SE,135,3.0,4.0,100,0.00,,,0.00,Rainwise IP-100,2013-05-27 10:54:00,
2013-05-27 06:59:00,40.2,40.0,29.85,SE,135,1.0,3.0,100,0.00,,,0.00,Rainwise IP-100,2013-05-27 10:59:00,
2013-05-27 07:04:00,40.6,41.0,29.85,SE,135,2.0,4.0,100,0.00,,,0.00,Rainwise IP-100,2013-05-27 11:04:00,
2013-05-27 07:09:00,40.8,41.0,29.86,SE,135,1.0,3.0,100,0.00,,,0.00,Rainwise IP-100,2013-05-27 11:09:00,
2013-05-27 07:14:00,41.3,41.0,29.86,SE,135,0.0,3.0,100,0.00,,,0.00,Rainwise IP-100,2013-05-27 11:14:00,
2013-05-27 07:19:00,42.0,42.0,29.86,SE,135,2.0,2.0,100,0.00,,,0.00,Rainwise IP-100,2013-05-27 11:19:00,
2013-05-27 07:24:00,42.5,43.0,29.86,SE,135,2.0,3.0,100,0.00,,,0.00,Rainwise IP-100,2013-05-27 11:24:00,
2013-05-27 07:29:00,43.2,43.0,29.86,SE,135,2.0,3.0,100,0.00,,,0.00,Rainwise IP-100,2013-05-27 11:29:00,
2013-05-27 07:35:00,43.8,44.0,29.86,SE,135,2.0,3.0,100,0.00,,,0.00,Rainwise IP-100,2013-05-27 11:35:00,
2013-05-27 07:40:00,44.3,44.0,29.86,SE,135,2.0,5.0,100,0.00,,,0.00,Rainwise IP-100,2013-05-27 11:40:00,
2013-05-27 07:45:00,44.7,45.0,29.87,SE,135,1.0,5.0,100,0.00,,,0.00,Rainwise IP-100,2013-05-27 11:45:00,
2013-05-27 07:50:00,45.3,45.0,29.87,SE,135,1.0,4.0,100,0.00,,,0.00,Rainwise IP-100,2013-05-27 11:50:00,
2013-05-27 07:55:00,46.2,46.0,29.87,SE,135,0.0,4.0,100,0.00,,,0.00,Rainwise IP-100,2013-05-27 11:55:00,
2013-05-27 08:00:00,47.3,47.5,29.87,SE,135,0.0,1.0,100,0.00,,,0.00,Rainwise IP-100,2013-05-27 12:00:00,
2013-05-27 08:05:00,48.2,48.0,29.88,SE,135,1.0,3.0,100,0.00,,,0.00,Rainwise IP-100,2013-05-27 12:05:00,
2013-05-27 08:11:00,48.7,49.0,29.88,West,270,0.0,1.0,100,0.00,,,0.00,Rainwise IP-100,2013-05-27 12:11:00,
2013-05-27 08:16:00,49.3,49.0,29.88,SSW,202,0.0,2.0,100,0.00,,,0.00,Rainwise IP-100,2013-05-27 12:16:00,
2013-05-27 08:21:00,49.7,50.0,29.88,South,180,0.0,4.0,100,0.00,,,0.00,Rainwise IP-100,2013-05-27 12:21:00,
2013-05-27 08:26:00,49.7,50.0,29.88,SSE,157,2.0,6.0,100,0.00,,,0.00,Rainwise IP-100,2013-05-27 12:26:00,
2013-05-27 08:31:00,50.7,50.5,29.89,South,180,0.0,5.0,100,0.00,,,0.00,Rainwise IP-100,2013-05-27 12:31:00,
2013-05-27 08:36:00,51.1,51.0,29.89,South,180,0.0,1.0,100,0.00,,,0.00,Rainwise IP-100,2013-05-27 12:36:00,
2013-05-27 08:41:00,50.8,51.0,29.90,South,180,0.0,2.0,100,0.00,,,0.00,Rainwise IP-100,2013-05-27 12:41:00,
2013-05-27 08:46:00,50.3,50.5,29.90,South,180,0.0,3.0,100,0.00,,,0.00,Rainwise IP-100,2013-05-27 12:46:00,
2013-05-27 08:52:00,50.6,50.5,29.90,SSE,157,0.0,6.0,100,0.00,,,0.00,Rainwise IP-100,2013-05-27 12:52:00,
2013-05-27 08:57:00,50.8,51.0,29.90,SE,135,0.0,4.0,100,0.00,,,0.00,Rainwise IP-100,2013-05-27 12:57:00,
2013-05-27 09:02:00,50.5,50.5,29.90,SE,135,0.0,4.0,100,0.00,,,0.00,Rainwise IP-100,2013-05-27 13:02:00,
2013-05-27 09:07:00,50.7,50.0,29.90,SSE,157,0.0,6.0,97,0.00,,,0.00,Rainwise IP-100,2013-05-27 13:07:00,
2013-05-27 09:12:00,50.9,51.0,29.90,SE,135,2.0,5.0,100,0.00,,,0.00,Rainwise IP-100,2013-05-27 13:12:00,
2013-05-27 09:17:00,51.1,51.0,29.90,SSE,157,1.0,4.0,100,0.00,,,0.00,Rainwise IP-100,2013-05-27 13:17:00,
2013-05-27 09:22:00,51.4,51.0,29.90,SSE,157,0.0,4.0,100,0.00,,,0.00,Rainwise IP-100,2013-05-27 13:22:00,
2013-05-27 09:28:00,52.7,51.0,29.90,SSE,157,0.0,5.0,95,0.00,,,0.00,Rainwise IP-100,2013-05-27 13:28:00,
2013-05-27 09:33:00,53.5,50.5,29.90,SSE,157,0.0,7.0,91,0.00,,,0.00,Rainwise IP-100,2013-05-27 13:33:00,
2013-05-27 09:38:00,54.2,52.0,29.90,NNW,337,0.0,4.0,93,0.00,,,0.00,Rainwise IP-100,2013-05-27 13:38:00,
2013-05-27 09:43:00,54.3,49.0,29.90,SSE,157,1.0,3.0,82,0.00,,,0.00,Rainwise IP-100,2013-05-27 13:43:00,
2013-05-27 09:48:00,54.8,50.5,29.90,North,360,1.0,7.0,84,0.00,,,0.00,Rainwise IP-100,2013-05-27 13:48:00,
2013-05-27 09:53:00,55.9,50.5,29.90,West,270,0.0,5.0,83,0.00,,,0.00,Rainwise IP-100,2013-05-27 13:53:00,
2013-05-27 09:58:00,56.4,50.0,29.90,South,180,0.0,6.0,78,0.00,,,0.00,Rainwise IP-100,2013-05-27 13:58:00,
2013-05-27 10:03:00,56.7,48.0,29.90,SSE,157,0.0,6.0,73,0.00,,,0.00,Rainwise IP-100,2013-05-27 14:03:00,
2013-05-27 10:09:00,57.3,51.0,29.90,ENE,67,1.0,2.0,80,0.00,,,0.00,Rainwise IP-100,2013-05-27 14:09:00,
2013-05-27 10:14:00,58.3,48.0,29.90,SSW,202,0.0,6.0,70,0.00,,,0.00,Rainwise IP-100,2013-05-27 14:14:00,
2013-05-27 10:19:00,59.1,48.0,29.91,SSE,157,4.0,6.0,68,0.00,,,0.00,Rainwise IP-100,2013-05-27 14:19:00,
2013-05-27 10:24:00,59.2,46.0,29.91,SE,135,1.0,6.0,62,0.00,,,0.00,Rainwise IP-100,2013-05-27 14:24:00,
2013-05-27 10:29:00,60.2,48.0,29.91,WSW,247,1.0,5.0,66,0.00,,,0.00,Rainwise IP-100,2013-05-27 14:29:00,
2013-05-27 10:34:00,61.2,51.0,29.91,NNW,337,3.0,4.0,70,0.00,,,0.00,Rainwise IP-100,2013-05-27 14:34:00,
2013-05-27 10:39:00,62.3,53.0,29.91,East,90,1.0,3.0,70,0.00,,,0.00,Rainwise IP-100,2013-05-27 14:39:00,
2013-05-27 10:45:00,62.6,52.0,29.92,NE,45,1.0,3.0,69,0.00,,,0.00,Rainwise IP-100,2013-05-27 14:45:00,
2013-05-27 10:50:00,63.1,48.0,29.92,NW,315,5.0,7.0,58,0.00,,,0.00,Rainwise IP-100,2013-05-27 14:50:00,
2013-05-27 10:55:00,63.2,44.0,29.92,North,360,4.0,7.0,50,0.00,,,0.00,Rainwise IP-100,2013-05-27 14:55:00,
2013-05-27 11:00:00,64.1,48.0,29.92,NW,315,7.0,7.0,57,0.00,,,0.00,Rainwise IP-100,2013-05-27 15:00:00,
2013-05-27 11:05:00,63.6,45.0,29.92,NNW,337,4.0,8.0,50,0.00,,,0.00,Rainwise IP-100,2013-05-27 15:05:00,
2013-05-27 11:10:00,63.7,46.0,29.92,NW,315,1.0,8.0,53,0.00,,,0.00,Rainwise IP-100,2013-05-27 15:10:00,
2013-05-27 11:15:00,64.5,49.0,29.92,NNW,337,2.0,5.0,58,0.00,,,0.00,Rainwise IP-100,2013-05-27 15:15:00,
2013-05-27 11:20:00,63.1,45.0,29.92,WNW,292,5.0,9.0,52,0.00,,,0.00,Rainwise IP-100,2013-05-27 15:20:00,
2013-05-27 11:26:00,63.7,43.0,29.93,WNW,292,2.0,9.0,48,0.00,,,0.00,Rainwise IP-100,2013-05-27 15:26:00,
2013-05-27 11:31:00,63.2,43.0,29.93,NNW,337,7.0,10.0,48,0.00,,,0.00,Rainwise IP-100,2013-05-27 15:31:00,
2013-05-27 11:36:00,64.3,49.0,29.92,NW,315,0.0,8.0,57,0.00,,,0.00,Rainwise IP-100,2013-05-27 15:36:00,
2013-05-27 11:41:00,64.6,44.0,29.92,West,270,5.0,11.0,47,0.00,,,0.00,Rainwise IP-100,2013-05-27 15:41:00,
2013-05-27 11:46:00,64.4,46.0,29.93,NNW,337,7.0,9.0,50,0.00,,,0.00,Rainwise IP-100,2013-05-27 15:46:00,
2013-05-27 11:51:00,64.8,46.0,29.93,NNW,337,6.0,9.0,50,0.00,,,0.00,Rainwise IP-100,2013-05-27 15:51:00,
2013-05-27 11:56:00,65.2,48.0,29.93,NNW,337,8.0,9.0,55,0.00,,,0.00,Rainwise IP-100,2013-05-27 15:56:00,
2013-05-27 12:02:00,65.4,49.0,29.92,West,270,1.0,9.0,55,0.00,,,0.00,Rainwise IP-100,2013-05-27 16:02:00,
2013-05-27 12:07:00,65.7,49.0,29.92,NNW,337,6.0,10.0,55,0.00,,,0.00,Rainwise IP-100,2013-05-27 16:07:00,
2013-05-27 12:12:00,64.8,45.0,29.92,North,360,6.0,13.0,49,0.00,,,0.00,Rainwise IP-100,2013-05-27 16:12:00,
2013-05-27 12:17:00,64.7,45.0,29.92,WNW,292,6.0,9.0,49,0.00,,,0.00,Rainwise IP-100,2013-05-27 16:17:00,
2013-05-27 12:22:00,64.4,42.0,29.92,NNW,337,7.0,12.0,44,0.00,,,0.00,Rainwise IP-100,2013-05-27 16:22:00,
2013-05-27 12:27:00,64.7,44.0,29.92,NW,315,3.0,12.0,48,0.00,,,0.00,Rainwise IP-100,2013-05-27 16:27:00,
2013-05-27 12:32:00,65.2,42.0,29.91,NNW,337,7.0,9.0,44,0.00,,,0.00,Rainwise IP-100,2013-05-27 16:32:00,
2013-05-27 12:37:00,65.4,43.0,29.91,NW,315,1.0,12.0,44,0.00,,,0.00,Rainwise IP-100,2013-05-27 16:37:00,
2013-05-27 12:43:00,65.0,43.0,29.91,NW,315,4.0,10.0,45,0.00,,,0.00,Rainwise IP-100,2013-05-27 16:43:00,
2013-05-27 12:48:00,66.2,46.0,29.91,NNW,337,6.0,9.0,47,0.00,,,0.00,Rainwise IP-100,2013-05-27 16:48:00,
2013-05-27 12:53:00,65.7,42.0,29.90,NW,315,5.0,10.0,43,0.00,,,0.00,Rainwise IP-100,2013-05-27 16:53:00,
2013-05-27 12:58:00,66.2,44.0,29.90,NNW,337,4.0,10.0,44,0.00,,,0.00,Rainwise IP-100,2013-05-27 16:58:00,
2013-05-27 13:03:00,65.7,42.0,29.91,NNW,337,6.0,11.0,43,0.00,,,0.00,Rainwise IP-100,2013-05-27 17:03:00,
2013-05-27 13:08:00,66.0,45.0,29.91,NNW,337,7.0,9.0,47,0.00,,,0.00,Rainwise IP-100,2013-05-27 17:08:00,
2013-05-27 13:13:00,66.4,44.0,29.90,NNW,337,5.0,11.0,44,0.00,,,0.00,Rainwise IP-100,2013-05-27 17:13:00,
2013-05-27 13:19:00,66.3,46.0,29.90,NNW,337,6.0,9.0,47,0.00,,,0.00,Rainwise IP-100,2013-05-27 17:19:00,
2013-05-27 13:24:00,67.1,47.0,29.90,North,360,1.0,6.0,48,0.00,,,0.00,Rainwise IP-100,2013-05-27 17:24:00,
2013-05-27 13:29:00,67.9,47.0,29.90,NNW,337,6.0,6.0,47,0.00,,,0.00,Rainwise IP-100,2013-05-27 17:29:00,
2013-05-27 13:31:00,68.0,49.0,29.90,WNW,292,0.0,9.0,50,0.00,,,0.00,Rainwise IP-100,2013-05-27 17:31:00,
2013-05-27 13:36:00,67.9,47.0,29.90,North,360,6.0,7.0,46,0.00,,,0.00,Rainwise IP-100,2013-05-27 17:36:00,
2013-05-27 13:41:00,67.9,45.0,29.90,NW,315,0.0,12.0,43,0.00,,,0.00,Rainwise IP-100,2013-05-27 17:41:00,
2013-05-27 13:47:00,68.6,47.0,29.90,West,270,0.0,6.0,45,0.00,,,0.00,Rainwise IP-100,2013-05-27 17:47:00,
2013-05-27 13:52:00,68.2,42.0,29.90,North,360,3.0,9.0,39,0.00,,,0.00,Rainwise IP-100,2013-05-27 17:52:00,
2013-05-27 13:57:00,66.9,42.0,29.90,SSE,157,0.0,8.0,40,0.00,,,0.00,Rainwise IP-100,2013-05-27 17:57:00,
2013-05-27 14:02:00,67.9,49.0,29.90,NNW,337,0.0,5.0,50,0.00,,,0.00,Rainwise IP-100,2013-05-27 18:02:00,
2013-05-27 14:07:00,68.5,42.0,29.90,NW,315,3.0,9.0,39,0.00,,,0.00,Rainwise IP-100,2013-05-27 18:07:00,
2013-05-27 14:12:00,67.3,42.0,29.90,NNW,337,3.0,9.0,40,0.00,,,0.00,Rainwise IP-100,2013-05-27 18:12:00,
2013-05-27 14:17:00,67.9,47.5,29.90,NNW,337,1.0,8.0,48,0.00,,,0.00,Rainwise IP-100,2013-05-27 18:17:00,
2013-05-27 14:23:00,68.1,42.0,29.90,North,360,6.0,7.0,39,0.00,,,0.00,Rainwise IP-100,2013-05-27 18:23:00,
2013-05-27 14:28:00,67.9,45.0,29.89,NW,315,7.0,7.0,43,0.00,,,0.00,Rainwise IP-100,2013-05-27 18:28:00,
2013-05-27 14:33:00,68.3,42.0,29.89,North,360,6.0,9.0,39,0.00,,,0.00,Rainwise IP-100,2013-05-27 18:33:00,
2013-05-27 14:38:00,68.3,45.0,29.89,NNW,337,8.0,8.0,43,0.00,,,0.00,Rainwise IP-100,2013-05-27 18:38:00,
2013-05-27 14:43:00,68.3,47.0,29.89,NW,315,2.0,9.0,45,0.00,,,0.00,Rainwise IP-100,2013-05-27 18:43:00,
2013-05-27 14:48:00,68.7,45.0,29.89,NNW,337,6.0,7.0,43,0.00,,,0.00,Rainwise IP-100,2013-05-27 18:48:00,
2013-05-27 14:53:00,68.4,42.0,29.89,NW,315,1.0,8.0,38,0.00,,,0.00,Rainwise IP-100,2013-05-27 18:53:00,
2013-05-27 14:58:00,67.8,42.0,29.89,NNE,22,7.0,8.0,39,0.00,,,0.00,Rainwise IP-100,2013-05-27 18:58:00,
2013-05-27 15:04:00,67.1,41.0,29.88,NW,315,3.0,8.0,39,0.00,,,0.00,Rainwise IP-100,2013-05-27 19:04:00,
2013-05-27 15:09:00,66.7,41.0,29.88,West,270,3.0,8.0,40,0.00,,,0.00,Rainwise IP-100,2013-05-27 19:09:00,
2013-05-27 15:14:00,66.4,47.0,29.88,NW,315,0.0,6.0,49,0.00,,,0.00,Rainwise IP-100,2013-05-27 19:14:00,
2013-05-27 15:19:00,66.6,43.0,29.88,North,360,3.0,5.0,42,0.00,,,0.00,Rainwise IP-100,2013-05-27 19:19:00,
2013-05-27 15:24:00,66.4,42.0,29.88,NW,315,4.0,9.0,42,0.00,,,0.00,Rainwise IP-100,2013-05-27 19:24:00,
2013-05-27 15:29:00,66.5,45.0,29.88,South,180,0.0,6.0,45,0.00,,,0.00,Rainwise IP-100,2013-05-27 19:29:00,
2013-05-27 15:34:00,66.4,44.0,29.88,SW,225,0.0,8.0,45,0.00,,,0.00,Rainwise IP-100,2013-05-27 19:34:00,
2013-05-27 15:40:00,66.5,44.0,29.88,NW,315,7.0,7.0,44,0.00,,,0.00,Rainwise IP-100,2013-05-27 19:40:00,
2013-05-27 15:45:00,66.4,42.0,29.88,West,270,1.0,6.0,42,0.00,,,0.00,Rainwise IP-100,2013-05-27 19:45:00,
2013-05-27 15:50:00,66.4,44.0,29.88,NW,315,2.0,11.0,44,0.00,,,0.00,Rainwise IP-100,2013-05-27 19:50:00,
2013-05-27 15:52:00,66.3,44.0,29.88,NW,315,3.0,11.0,44,0.00,,,0.00,Rainwise IP-100,2013-05-27 19:52:00,
2013-05-27 15:57:00,66.2,43.0,29.88,WNW,292,6.0,10.0,43,0.00,,,0.00,Rainwise IP-100,2013-05-27 19:57:00,
2013-05-27 16:03:00,66.0,41.0,29.88,North,360,1.0,6.0,41,0.00,,,0.00,Rainwise IP-100,2013-05-27 20:03:00,
2013-05-27 16:08:00,66.0,41.0,29.88,NW,315,0.0,9.0,40,0.00,,,0.00,Rainwise IP-100,2013-05-27 20:08:00,
2013-05-27 16:13:00,66.3,43.0,29.88,NNW,337,2.0,3.0,43,0.00,,,0.00,Rainwise IP-100,2013-05-27 20:13:00,
2013-05-27 16:18:00,66.7,44.0,29.88,North,360,3.0,7.0,44,0.00,,,0.00,Rainwise IP-100,2013-05-27 20:18:00,
2013-05-27 16:23:00,66.7,41.0,29.88,NW,315,2.0,9.0,40,0.00,,,0.00,Rainwise IP-100,2013-05-27 20:23:00,
2013-05-27 16:28:00,66.7,42.0,29.88,North,360,7.0,9.0,41,0.00,,,0.00,Rainwise IP-100,2013-05-27 20:28:00,
2013-05-27 16:33:00,66.4,40.0,29.88,NW,315,0.0,9.0,38,0.00,,,0.00,Rainwise IP-100,2013-05-27 20:33:00,
2013-05-27 16:39:00,66.2,41.0,29.88,NNW,337,0.0,3.0,40,0.00,,,0.00,Rainwise IP-100,2013-05-27 20:39:00,
2013-05-27 16:44:00,66.2,42.0,29.88,WNW,292,2.0,3.0,42,0.00,,,0.00,Rainwise IP-100,2013-05-27 20:44:00,
2013-05-27 16:49:00,66.1,41.0,29.88,NW,315,7.0,11.0,40,0.00,,,0.00,Rainwise IP-100,2013-05-27 20:49:00,
2013-05-27 16:54:00,66.0,44.0,29.88,NW,315,0.0,7.0,45,0.00,,,0.00,Rainwise IP-100,2013-05-27 20:54:00,
2013-05-27 16:59:00,65.9,41.0,29.88,WNW,292,1.0,9.0,40,0.00,,,0.00,Rainwise IP-100,2013-05-27 20:59:00,
2013-05-27 17:04:00,65.9,42.0,29.88,NW,315,5.0,5.0,42,0.00,,,0.00,Rainwise IP-100,2013-05-27 21:04:00,
2013-05-27 17:09:00,65.9,43.0,29.88,SW,225,0.0,7.0,43,0.00,,,0.00,Rainwise IP-100,2013-05-27 21:09:00,
2013-05-27 17:14:00,65.7,40.0,29.88,NNW,337,5.0,9.0,40,0.00,,,0.00,Rainwise IP-100,2013-05-27 21:14:00,
2013-05-27 17:20:00,65.8,41.0,29.88,NW,315,4.0,7.0,40,0.00,,,0.00,Rainwise IP-100,2013-05-27 21:20:00,
2013-05-27 17:25:00,65.8,41.0,29.88,NNW,337,5.0,7.0,41,0.00,,,0.00,Rainwise IP-100,2013-05-27 21:25:00,
2013-05-27 17:30:00,65.9,44.0,29.88,NW,315,5.0,9.0,45,0.00,,,0.00,Rainwise IP-100,2013-05-27 21:30:00,
2013-05-27 17:35:00,65.9,41.0,29.88,NW,315,5.0,9.0,40,0.00,,,0.00,Rainwise IP-100,2013-05-27 21:35:00,
2013-05-27 17:40:00,65.8,43.0,29.88,NNW,337,3.0,9.0,43,0.00,,,0.00,Rainwise IP-100,2013-05-27 21:40:00,
2013-05-27 17:45:00,65.6,41.0,29.88,NW,315,0.0,7.0,42,0.00,,,0.00,Rainwise IP-100,2013-05-27 21:45:00,
2013-05-27 17:50:00,65.5,41.0,29.88,NNW,337,6.0,9.0,42,0.00,,,0.00,Rainwise IP-100,2013-05-27 21:50:00,
2013-05-27 17:56:00,65.4,41.0,29.88,NW,315,4.0,7.0,41,0.00,,,0.00,Rainwise IP-100,2013-05-27 21:56:00,
2013-05-27 18:01:00,65.4,41.0,29.88,North,360,6.0,8.0,42,0.00,,,0.00,Rainwise IP-100,2013-05-27 22:01:00,
2013-05-27 18:06:00,65.2,42.0,29.88,WNW,292,3.0,6.0,43,0.00,,,0.00,Rainwise IP-100,2013-05-27 22:06:00,
2013-05-27 18:11:00,65.2,41.0,29.88,NW,315,2.0,7.0,42,0.00,,,0.00,Rainwise IP-100,2013-05-27 22:11:00,
2013-05-27 18:16:00,65.1,42.0,29.88,NW,315,2.0,6.0,44,0.00,,,0.00,Rainwise IP-100,2013-05-27 22:16:00,
2013-05-27 18:21:00,65.1,41.0,29.88,NNW,337,6.0,7.0,42,0.00,,,0.00,Rainwise IP-100,2013-05-27 22:21:00,
2013-05-27 18:26:00,64.9,42.0,29.88,NNW,337,0.0,7.0,43,0.00,,,0.00,Rainwise IP-100,2013-05-27 22:26:00,
2013-05-27 18:31:00,64.9,42.0,29.88,WNW,292,4.0,10.0,43,0.00,,,0.00,Rainwise IP-100,2013-05-27 22:31:00,
2013-05-27 18:37:00,64.9,42.0,29.88,North,360,5.0,8.0,43,0.00,,,0.00,Rainwise IP-100,2013-05-27 22:37:00,
2013-05-27 18:42:00,64.7,43.0,29.88,WSW,247,0.0,6.0,46,0.00,,,0.00,Rainwise IP-100,2013-05-27 22:42:00,
2013-05-27 18:47:00,64.4,43.0,29.88,NW,315,2.0,4.0,46,0.00,,,0.00,Rainwise IP-100,2013-05-27 22:47:00,
2013-05-27 18:52:00,64.1,43.0,29.88,NNW,337,5.0,7.0,47,0.00,,,0.00,Rainwise IP-100,2013-05-27 22:52:00,
2013-05-27 18:57:00,63.9,43.0,29.88,NNW,337,1.0,7.0,47,0.00,,,0.00,Rainwise IP-100,2013-05-27 22:57:00,
2013-05-27 19:02:00,63.7,43.0,29.88,NNW,337,0.0,3.0,47,0.00,,,0.00,Rainwise IP-100,2013-05-27 23:02:00,
2013-05-27 19:07:00,63.6,43.0,29.88,West,270,0.0,7.0,47,0.00,,,0.00,Rainwise IP-100,2013-05-27 23:07:00,
2013-05-27 19:13:00,63.4,43.0,29.88,NW,315,0.0,4.0,48,0.00,,,0.00,Rainwise IP-100,2013-05-27 23:13:00,
2013-05-27 19:18:00,63.1,45.0,29.88,NW,315,1.0,1.0,51,0.00,,,0.00,Rainwise IP-100,2013-05-27 23:18:00,
2013-05-27 19:23:00,62.7,46.0,29.88,NW,315,1.0,2.0,54,0.00,,,0.00,Rainwise IP-100,2013-05-27 23:23:00,
2013-05-27 19:28:00,62.3,45.0,29.88,NNW,337,0.0,4.0,53,0.00,,,0.00,Rainwise IP-100,2013-05-27 23:28:00,
2013-05-27 19:33:00,62.2,47.0,29.89,NNW,337,0.0,1.0,57,0.00,,,0.00,Rainwise IP-100,2013-05-27 23:33:00,
2013-05-27 19:38:00,61.2,47.0,29.89,NNW,337,0.0,0.0,60,0.00,,,0.00,Rainwise IP-100,2013-05-27 23:38:00,
2013-05-27 19:43:00,60.3,47.5,29.89,NNW,337,0.0,0.0,62,0.00,,,0.00,Rainwise IP-100,2013-05-27 23:43:00,
2013-05-27 19:48:00,59.6,47.5,29.89,NNW,337,0.0,0.0,65,0.00,,,0.00,Rainwise IP-100,2013-05-27 23:48:00,
2013-05-27 19:54:00,59.0,47.0,29.89,NNW,337,0.0,0.0,64,0.00,,,0.00,Rainwise IP-100,2013-05-27 23:54:00,
2013-05-27 19:59:00,58.6,49.0,29.89,NNW,337,0.0,0.0,69,0.00,,,0.00,Rainwise IP-100,2013-05-27 23:59:00,
2013-05-27 20:04:00,57.9,49.0,29.89,NNW,337,0.0,0.0,71,0.00,,,0.00,Rainwise IP-100,2013-05-28 00:04:00,
2013-05-27 20:09:00,57.2,49.0,29.89,NNW,337,0.0,0.0,74,0.00,,,0.00,Rainwise IP-100,2013-05-28 00:09:00,
2013-05-27 20:14:00,56.3,48.0,29.89,NNW,337,0.0,0.0,74,0.00,,,0.00,Rainwise IP-100,2013-05-28 00:14:00,
2013-05-27 20:19:00,56.2,48.0,29.89,NNW,337,0.0,0.0,75,0.00,,,0.00,Rainwise IP-100,2013-05-28 00:19:00,
2013-05-27 20:24:00,55.7,48.0,29.89,NNW,337,0.0,1.0,76,0.00,,,0.00,Rainwise IP-100,2013-05-28 00:24:00,
2013-05-27 20:30:00,54.9,48.0,29.89,NNW,337,0.0,1.0,78,0.00,,,0.00,Rainwise IP-100,2013-05-28 00:30:00,
2013-05-27 20:35:00,53.9,48.0,29.88,NNW,337,1.0,2.0,82,0.00,,,0.00,Rainwise IP-100,2013-05-28 00:35:00,
2013-05-27 20:40:00,53.1,47.0,29.88,NNW,337,0.0,2.0,80,0.00,,,0.00,Rainwise IP-100,2013-05-28 00:40:00,
2013-05-27 20:45:00,52.3,47.0,29.88,NNW,337,0.0,2.0,82,0.00,,,0.00,Rainwise IP-100,2013-05-28 00:45:00,
2013-05-27 20:50:00,51.7,47.5,29.88,NNW,337,0.0,0.0,85,0.00,,,0.00,Rainwise IP-100,2013-05-28 00:50:00,
2013-05-27 20:55:00,51.7,47.5,29.88,NNW,337,0.0,0.0,85,0.00,,,0.00,Rainwise IP-100,2013-05-28 00:55:00,
2013-05-27 21:00:00,51.8,48.0,29.88,NNW,337,0.0,0.0,86,0.00,,,0.00,Rainwise IP-100,2013-05-28 01:00:00,
2013-05-27 21:05:00,51.4,47.0,29.88,NNW,337,0.0,2.0,85,0.00,,,0.00,Rainwise IP-100,2013-05-28 01:05:00,
2013-05-27 21:11:00,50.7,47.0,29.88,NNW,337,1.0,3.0,86,0.00,,,0.00,Rainwise IP-100,2013-05-28 01:11:00,
2013-05-27 21:16:00,49.9,46.0,29.88,NNW,337,1.0,2.0,86,0.00,,,0.00,Rainwise IP-100,2013-05-28 01:16:00,
2013-05-27 21:21:00,49.3,45.0,29.88,NNW,337,0.0,2.0,87,0.00,,,0.00,Rainwise IP-100,2013-05-28 01:21:00,
2013-05-27 21:26:00,49.5,46.0,29.88,NNW,337,0.0,1.0,87,0.00,,,0.00,Rainwise IP-100,2013-05-28 01:26:00,
2013-05-27 21:31:00,50.1,46.0,29.88,NNW,337,0.0,1.0,85,0.00,,,0.00,Rainwise IP-100,2013-05-28 01:31:00,
2013-05-27 21:36:00,50.2,46.0,29.89,NNW,337,0.0,0.0,85,0.00,,,0.00,Rainwise IP-100,2013-05-28 01:36:00,
2013-05-27 21:41:00,49.9,46.0,29.89,NNW,337,0.0,1.0,85,0.00,,,0.00,Rainwise IP-100,2013-05-28 01:41:00,
2013-05-27 21:46:00,49.4,45.0,29.89,NNW,337,0.0,1.0,87,0.00,,,0.00,Rainwise IP-100,2013-05-28 01:46:00,
2013-05-27 21:52:00,48.9,46.0,29.89,NNW,337,0.0,0.0,89,0.00,,,0.00,Rainwise IP-100,2013-05-28 01:52:00,
2013-05-27 21:57:00,49.7,47.5,29.89,SE,135,1.0,3.0,92,0.00,,,0.00,Rainwise IP-100,2013-05-28 01:57:00,
2013-05-27 22:02:00,49.9,47.5,29.89,SE,135,0.0,2.0,93,0.00,,,0.00,Rainwise IP-100,2013-05-28 02:02:00,
2013-05-27 22:07:00,49.7,47.0,29.89,SE,135,0.0,0.0,90,0.00,,,0.00,Rainwise IP-100,2013-05-28 02:07:00,
2013-05-27 22:12:00,48.9,47.0,29.89,SE,135,0.0,0.0,90,0.00,,,0.00,Rainwise IP-100,2013-05-28 02:12:00,
2013-05-27 22:17:00,48.6,47.5,29.89,SE,135,0.0,0.0,94,0.00,,,0.00,Rainwise IP-100,2013-05-28 02:17:00,
2013-05-27 22:22:00,48.3,47.0,29.89,SE,135,0.0,0.0,95,0.00,,,0.00,Rainwise IP-100,2013-05-28 02:22:00,
2013-05-27 22:27:00,47.6,46.0,29.89,SE,135,0.0,0.0,94,0.00,,,0.00,Rainwise IP-100,2013-05-28 02:27:00,
2013-05-27 22:32:00,47.7,47.0,29.89,SE,135,4.0,4.0,97,0.00,,,0.00,Rainwise IP-100,2013-05-28 02:32:00,
2013-05-27 22:38:00,47.9,47.5,29.89,SE,135,0.0,3.0,96,0.00,,,0.00,Rainwise IP-100,2013-05-28 02:38:00,
2013-05-27 22:43:00,48.2,47.5,29.89,SE,135,0.0,0.0,96,0.00,,,0.00,Rainwise IP-100,2013-05-28 02:43:00,
2013-05-27 22:48:00,48.3,47.0,29.89,SE,135,0.0,1.0,95,0.00,,,0.00,Rainwise IP-100,2013-05-28 02:48:00,
2013-05-27 22:53:00,48.0,47.0,29.90,SE,135,0.0,0.0,95,0.00,,,0.00,Rainwise IP-100,2013-05-28 02:53:00,
2013-05-27 22:58:00,47.5,46.0,29.90,SE,135,0.0,0.0,94,0.00,,,0.00,Rainwise IP-100,2013-05-28 02:58:00,
2013-05-27 23:03:00,46.9,46.0,29.90,SE,135,0.0,0.0,96,0.00,,,0.00,Rainwise IP-100,2013-05-28 03:03:00,
2013-05-27 23:08:00,46.3,45.0,29.90,SE,135,0.0,0.0,96,0.00,,,0.00,Rainwise IP-100,2013-05-28 03:08:00,
2013-05-27 23:14:00,45.9,45.0,29.89,SE,135,1.0,1.0,97,0.00,,,0.00,Rainwise IP-100,2013-05-28 03:14:00,
2013-05-27 23:19:00,46.6,47.0,29.89,SE,135,2.0,3.0,100,0.00,,,0.00,Rainwise IP-100,2013-05-28 03:19:00,
2013-05-27 23:24:00,47.2,47.0,29.90,SE,135,0.0,2.0,99,0.00,,,0.00,Rainwise IP-100,2013-05-28 03:24:00,
2013-05-27 23:29:00,47.3,47.5,29.90,SE,135,0.0,0.0,99,0.00,,,0.00,Rainwise IP-100,2013-05-28 03:29:00,
2013-05-27 23:34:00,46.7,47.0,29.90,SE,135,0.0,1.0,99,0.00,,,0.00,Rainwise IP-100,2013-05-28 03:34:00,
2013-05-27 23:39:00,45.6,46.0,29.90,SE,135,0.0,0.0,99,0.00,,,0.00,Rainwise IP-100,2013-05-28 03:39:00,
2013-05-27 23:44:00,45.3,45.0,29.90,SE,135,0.0,2.0,100,0.00,,,0.00,Rainwise IP-100,2013-05-28 03:44:00,
2013-05-27 23:49:00,45.2,45.0,29.90,SE,135,0.0,0.0,100,0.00,,,0.00,Rainwise IP-100,2013-05-28 03:49:00,
2013-05-27 23:55:00,45.4,45.0,29.90,SE,135,0.0,0.0,100,0.00,,,0.00,Rainwise IP-100,2013-05-28 03:55:00,